Location: Newark
(0.5300°S, 127.4800°E)
Time: 20:05:01
(UTC+00:00)

Vanguard 3 - Pass Details

Date: 21 September 2019
Orbit: 508 x 3262 km, 33.3° (Epoch: 17 October)

Event Time Altitude Azimuth Distance (km) Brightness Sun altitude
Rises 01:36:04 0° 307° (NW) 6,617 11.6 63.1°
Reaches altitude 10° 01:43:22 10° 326° (NNW) 5,968 11.5 64.9°
Maximum altitude 01:54:06 17° 1° (N) 5,608 11.7 67.6°
Drops below altitude 10° 02:04:57 10° 35° (NE) 6,024 11.9 70.3°
Sets 02:12:23 0° 54° (NE) 6,703 12.0 72.2°
